Location: Kuppenheim
(48.8299°N, 8.2568°E)
Time: 08:23:27
(UTC+00:00)

N. Korean satellite - Pass Details

Date: 07 December 2022
Orbit: 407 x 442 km, 97.3° (Epoch: 04 February)

Event Time Altitude Azimuth Distance (km) Brightness Sun altitude
Rises 06:12:52 0° 354° (N) 2,514 9.9 -8.4°
Reaches altitude 10° 06:15:56 10° 324° (NW) 1,623 8.7 -7.9°
Maximum altitude 06:17:25 12° 299° (WNW) 1,476 8.3 -7.7°
Drops below altitude 10° 06:18:53 10° 274° (W) 1,607 8.6 -7.5°
Sets 06:21:53 0° 243° (WSW) 2,461 9.8 -7.1°
